Time,TemperatureF,DewpointF,PressureIn,WindDirection,WindDirectionDegrees,WindSpeedMPH,WindSpeedGustMPH,Humidity,HourlyPrecipIn,Conditions,Clouds,dailyrainin,SolarRadiationWatts/m^2,SoftwareType,DateUTC
2013-08-19 00:01:00,56.0,56.0,-100.00,East,90,4.0,5.0,100,0.00,,,0.00,0.000000,,2013-08-19 08:01:00,
2013-08-19 00:11:00,56.0,56.0,-100.00,East,90,4.0,5.0,100,0.00,,,0.00,0.000000,,2013-08-19 08:11:00,
2013-08-19 00:21:00,56.0,56.0,-100.00,East,90,4.0,5.0,100,0.00,,,0.00,0.000000,,2013-08-19 08:21:00,
2013-08-19 00:52:00,56.0,56.0,-100.00,ESE,104,4.0,6.0,100,0.00,,,0.00,0.000000,,2013-08-19 08:52:00,
2013-08-19 01:01:00,56.0,56.0,-100.00,ESE,104,4.0,6.0,100,0.00,,,0.00,0.000000,,2013-08-19 09:01:00,
2013-08-19 01:11:00,56.0,56.0,-100.00,ESE,104,4.0,6.0,100,0.00,,,0.00,0.000000,,2013-08-19 09:11:00,
2013-08-19 01:21:00,56.0,56.0,-100.00,ESE,104,4.0,6.0,100,0.00,,,0.00,0.000000,,2013-08-19 09:21:00,
2013-08-19 01:53:00,54.0,54.0,-100.00,East,82,4.0,9.0,100,0.00,,,0.00,0.000000,,2013-08-19 09:53:00,
2013-08-19 02:03:00,54.0,54.0,-100.00,East,82,4.0,9.0,100,0.00,,,0.00,0.000000,,2013-08-19 10:03:00,
2013-08-19 02:12:00,54.0,54.0,-100.00,East,82,4.0,9.0,100,0.00,,,0.00,0.000000,,2013-08-19 10:12:00,
2013-08-19 02:22:00,54.0,54.0,-100.00,East,82,4.0,9.0,100,0.00,,,0.00,0.000000,,2013-08-19 10:22:00,
2013-08-19 02:52:00,52.0,52.0,-100.00,ESE,122,2.0,5.0,100,0.00,,,0.00,0.000000,,2013-08-19 10:52:00,
2013-08-19 03:02:00,52.0,52.0,-100.00,ESE,122,2.0,5.0,100,0.00,,,0.00,0.000000,,2013-08-19 11:02:00,
2013-08-19 03:12:00,52.0,52.0,-100.00,ESE,122,2.0,5.0,100,0.00,,,0.00,0.000000,,2013-08-19 11:12:00,
2013-08-19 03:21:00,52.0,52.0,-100.00,ESE,122,2.0,5.0,100,0.00,,,0.00,0.000000,,2013-08-19 11:21:00,
2013-08-19 03:52:00,51.0,51.0,-100.00,ESE,106,5.0,9.0,100,0.00,,,-99.99,0.000000,,2013-08-19 11:52:00,
2013-08-19 04:01:00,51.0,51.0,-100.00,ESE,106,5.0,9.0,100,0.00,,,-99.99,0.000000,,2013-08-19 12:01:00,
2013-08-19 04:11:00,51.0,51.0,-100.00,ESE,106,5.0,9.0,100,0.00,,,-99.99,0.000000,,2013-08-19 12:11:00,
2013-08-19 04:21:00,51.0,51.0,-100.00,ESE,106,5.0,9.0,100,0.00,,,-99.99,0.000000,,2013-08-19 12:21:00,
2013-08-19 04:52:00,49.0,49.0,-100.00,East,101,2.0,6.0,100,0.00,,,-99.99,0.000000,,2013-08-19 12:52:00,
2013-08-19 05:03:00,49.0,49.0,-100.00,East,101,2.0,6.0,100,0.00,,,-99.99,0.000000,,2013-08-19 13:03:00,
2013-08-19 05:13:00,49.0,49.0,-100.00,East,101,2.0,6.0,100,0.00,,,-99.99,0.000000,,2013-08-19 13:13:00,
2013-08-19 05:22:00,49.0,49.0,-100.00,East,101,2.0,6.0,100,0.00,,,-99.99,0.000000,,2013-08-19 13:22:00,
2013-08-19 05:52:00,49.0,49.0,-100.00,NE,42,2.0,4.0,100,0.00,,,0.00,0.000000,,2013-08-19 13:52:00,
2013-08-19 06:02:00,49.0,49.0,-100.00,NE,42,2.0,4.0,100,0.00,,,0.00,0.000000,,2013-08-19 14:02:00,
2013-08-19 06:11:00,49.0,49.0,-100.00,NE,42,2.0,4.0,100,0.00,,,0.00,0.000000,,2013-08-19 14:11:00,
2013-08-19 06:21:00,49.0,49.0,-100.00,NE,42,2.0,4.0,100,0.00,,,0.00,0.000000,,2013-08-19 14:21:00,
2013-08-19 06:52:00,50.0,50.0,-100.00,East,80,3.0,5.0,100,0.00,,,0.00,3.000000,,2013-08-19 14:52:00,
2013-08-19 07:01:00,50.0,50.0,-100.00,East,80,3.0,5.0,100,0.00,,,0.00,3.000000,,2013-08-19 15:01:00,
2013-08-19 07:11:00,50.0,50.0,-100.00,East,80,3.0,5.0,100,0.00,,,0.00,3.000000,,2013-08-19 15:11:00,
2013-08-19 07:22:00,50.0,50.0,-100.00,East,80,3.0,5.0,100,0.00,,,0.00,3.000000,,2013-08-19 15:22:00,
2013-08-19 07:54:00,50.0,50.0,-100.00,ENE,73,2.0,5.0,100,0.00,,,0.00,27.000000,,2013-08-19 15:54:00,
2013-08-19 08:05:00,50.0,50.0,-100.00,ENE,73,2.0,5.0,100,0.00,,,0.00,27.000000,,2013-08-19 16:05:00,
2013-08-19 08:13:00,50.0,50.0,-100.00,ENE,73,2.0,5.0,100,0.00,,,0.00,27.000000,,2013-08-19 16:13:00,
2013-08-19 08:23:00,50.0,50.0,-100.00,ENE,73,2.0,5.0,100,0.00,,,0.00,27.000000,,2013-08-19 16:23:00,
2013-08-19 08:25:00,52.0,-99.9,-100.00,ESE,116,4.0,7.0,100,0.00,,,0.00,94.000000,,2013-08-19 16:25:00,
2013-08-19 09:03:00,52.0,52.0,-100.00,ESE,116,4.0,7.0,100,0.00,,,0.00,94.000000,,2013-08-19 17:03:00,
2013-08-19 09:12:00,52.0,52.0,-100.00,ESE,116,4.0,7.0,100,0.00,,,0.00,94.000000,,2013-08-19 17:12:00,
2013-08-19 09:25:00,56.0,56.0,-100.00,East,94,3.0,6.0,100,0.00,,,0.00,161.000000,,2013-08-19 17:25:00,
2013-08-19 09:57:00,56.0,56.0,-100.00,East,94,3.0,6.0,100,0.00,,,0.00,161.000000,,2013-08-19 17:57:00,
2013-08-19 10:05:00,56.0,56.0,-100.00,East,94,3.0,6.0,100,0.00,,,0.00,161.000000,,2013-08-19 18:05:00,
2013-08-19 10:19:00,56.0,56.0,-100.00,East,94,3.0,6.0,100,0.00,,,0.00,161.000000,,2013-08-19 18:19:00,
2013-08-19 10:25:00,-999.0,-99.9,-100.00,East,79,4.0,6.0,87,0.00,,,0.00,336.000000,,2013-08-19 18:25:00,
2013-08-19 10:50:00,-999.0,-99.9,-100.00,East,79,4.0,6.0,87,0.00,,,0.00,336.000000,,2013-08-19 18:50:00,
2013-08-19 11:00:00,-999.0,-99.9,-100.00,East,79,4.0,6.0,87,0.00,,,0.00,336.000000,,2013-08-19 19:00:00,
2013-08-19 11:07:00,60.0,56.0,-100.00,East,79,4.0,6.0,87,0.00,,,0.00,336.000000,,2013-08-19 19:07:00,
2013-08-19 11:16:00,60.0,56.0,-100.00,East,79,4.0,6.0,87,0.00,,,0.00,336.000000,,2013-08-19 19:16:00,
2013-08-19 11:25:00,63.0,52.0,-100.00,West,263,3.0,6.0,67,0.00,,,0.00,431.000000,,2013-08-19 19:25:00,
2013-08-19 11:59:00,63.0,52.0,-100.00,West,263,3.0,6.0,67,0.00,,,0.00,431.000000,,2013-08-19 19:59:00,
2013-08-19 12:08:00,63.0,52.0,-100.00,West,263,3.0,6.0,67,0.00,,,0.00,431.000000,,2013-08-19 20:08:00,
2013-08-19 12:20:00,63.0,52.0,-100.00,West,263,3.0,6.0,67,0.00,,,0.00,431.000000,,2013-08-19 20:20:00,
2013-08-19 13:00:00,-999.0,-99.9,-100.00,WSW,240,3.0,6.0,-999,-99.99,,,-99.99,246.000000,,2013-08-19 21:00:00,
2013-08-19 13:08:00,62.0,55.0,-100.00,WSW,240,3.0,6.0,77,0.00,,,0.00,246.000000,,2013-08-19 21:08:00,
2013-08-19 13:16:00,62.0,55.0,-100.00,WSW,240,3.0,6.0,77,0.00,,,0.00,246.000000,,2013-08-19 21:16:00,
2013-08-19 13:24:00,62.0,55.0,-100.00,WSW,240,3.0,6.0,77,0.00,,,0.00,246.000000,,2013-08-19 21:24:00,
2013-08-19 13:25:00,63.0,52.0,-100.00,SSW,201,5.0,7.0,68,0.00,,,0.00,289.000000,,2013-08-19 21:25:00,
2013-08-19 13:55:00,63.0,52.0,-100.00,SSW,201,5.0,7.0,68,0.00,,,0.00,289.000000,,2013-08-19 21:55:00,
2013-08-19 14:06:00,63.0,52.0,-100.00,SSW,201,5.0,7.0,68,0.00,,,0.00,289.000000,,2013-08-19 22:06:00,
2013-08-19 14:25:00,65.0,49.0,-100.00,WSW,254,6.0,12.0,56,0.00,,,0.00,411.000000,,2013-08-19 22:25:00,
2013-08-19 14:55:00,65.0,49.0,-100.00,WSW,254,6.0,12.0,56,0.00,,,0.00,411.000000,,2013-08-19 22:55:00,
2013-08-19 15:05:00,65.0,49.0,-100.00,WSW,254,6.0,12.0,56,0.00,,,0.00,411.000000,,2013-08-19 23:05:00,
2013-08-19 15:15:00,65.0,49.0,-100.00,WSW,254,6.0,12.0,56,0.00,,,0.00,411.000000,,2013-08-19 23:15:00,
2013-08-19 15:55:00,65.0,49.0,-100.00,WSW,256,8.0,11.0,56,0.00,,,0.00,353.000000,,2013-08-19 23:55:00,
2013-08-19 16:02:00,65.0,49.0,-100.00,WSW,256,8.0,11.0,56,0.00,,,0.00,353.000000,,2013-08-20 00:02:00,
2013-08-19 16:11:00,65.0,49.0,-100.00,WSW,256,8.0,11.0,56,0.00,,,0.00,353.000000,,2013-08-20 00:11:00,
2013-08-19 16:23:00,65.0,49.0,-100.00,WSW,256,8.0,11.0,56,0.00,,,0.00,353.000000,,2013-08-20 00:23:00,
2013-08-19 16:52:00,65.0,48.0,-100.00,WNW,282,5.0,10.0,55,0.00,,,0.00,262.000000,,2013-08-20 00:52:00,
2013-08-19 17:03:00,65.0,48.0,-100.00,WNW,282,5.0,10.0,55,0.00,,,0.00,262.000000,,2013-08-20 01:03:00,
2013-08-19 17:11:00,65.0,48.0,-100.00,WNW,282,5.0,10.0,55,0.00,,,0.00,262.000000,,2013-08-20 01:11:00,
2013-08-19 17:22:00,65.0,48.0,-100.00,WNW,282,5.0,10.0,55,0.00,,,0.00,262.000000,,2013-08-20 01:22:00,
2013-08-19 18:21:00,59.0,53.0,-100.00,South,181,6.0,13.0,80,0.00,,,0.00,118.000000,,2013-08-20 02:21:00,
2013-08-19 18:52:00,60.0,52.0,-100.00,South,175,6.0,10.0,75,0.00,,,0.00,172.000000,,2013-08-20 02:52:00,
2013-08-19 19:02:00,60.0,52.0,-100.00,South,175,6.0,10.0,75,0.00,,,0.00,172.000000,,2013-08-20 03:02:00,
2013-08-19 19:11:00,60.0,52.0,-100.00,South,175,6.0,10.0,75,0.00,,,0.00,172.000000,,2013-08-20 03:11:00,
2013-08-19 19:22:00,60.0,52.0,-100.00,South,175,6.0,10.0,75,0.00,,,0.00,172.000000,,2013-08-20 03:22:00,
2013-08-19 19:54:00,60.0,55.0,-100.00,SSE,158,6.0,12.0,84,0.00,,,0.00,191.000000,,2013-08-20 03:54:00,
2013-08-19 20:03:00,60.0,55.0,-100.00,SSE,158,6.0,12.0,84,0.00,,,0.00,191.000000,,2013-08-20 04:03:00,
2013-08-19 20:13:00,60.0,55.0,-100.00,SSE,158,6.0,12.0,84,0.00,,,0.00,191.000000,,2013-08-20 04:13:00,
2013-08-19 20:23:00,60.0,55.0,-100.00,SSE,158,6.0,12.0,84,0.00,,,0.00,191.000000,,2013-08-20 04:23:00,
2013-08-19 20:53:00,58.0,58.0,-100.00,ESE,114,2.0,7.0,100,0.00,,,-99.99,66.000000,,2013-08-20 04:53:00,
2013-08-19 21:02:00,58.0,58.0,-100.00,ESE,114,2.0,7.0,100,0.00,,,-99.99,66.000000,,2013-08-20 05:02:00,
2013-08-19 21:12:00,58.0,58.0,-100.00,ESE,114,2.0,7.0,100,0.00,,,-99.99,66.000000,,2013-08-20 05:12:00,
2013-08-19 21:21:00,58.0,58.0,-100.00,ESE,114,2.0,7.0,100,0.00,,,-99.99,66.000000,,2013-08-20 05:21:00,
2013-08-19 21:52:00,58.0,58.0,-100.00,ENE,66,3.0,5.0,100,0.00,,,0.00,26.000000,,2013-08-20 05:52:00,
2013-08-19 22:01:00,58.0,58.0,-100.00,ENE,66,3.0,5.0,100,0.00,,,0.00,26.000000,,2013-08-20 06:01:00,
2013-08-19 22:11:00,58.0,58.0,-100.00,ENE,66,3.0,5.0,100,0.00,,,0.00,26.000000,,2013-08-20 06:11:00,
2013-08-19 22:21:00,58.0,58.0,-100.00,ENE,66,3.0,5.0,100,0.00,,,0.00,26.000000,,2013-08-20 06:21:00,
2013-08-19 22:52:00,57.0,57.0,-100.00,SE,129,3.0,6.0,100,0.00,,,0.00,4.000000,,2013-08-20 06:52:00,
2013-08-19 23:01:00,57.0,57.0,-100.00,SE,129,3.0,6.0,100,0.00,,,0.00,4.000000,,2013-08-20 07:01:00,
2013-08-19 23:11:00,57.0,57.0,-100.00,SE,129,3.0,6.0,100,0.00,,,0.00,4.000000,,2013-08-20 07:11:00,
2013-08-19 23:21:00,57.0,57.0,-100.00,SE,129,3.0,6.0,100,0.00,,,0.00,4.000000,,2013-08-20 07:21:00,
2013-08-19 23:52:00,54.0,54.0,-100.00,WSW,245,4.0,12.0,100,0.04,,,0.04,0.000000,,2013-08-20 07:52:00,